[TLELIST] Archives

 

[TLELIST] Current TLEs

September 25th 2025 PDT

0 HST 1 20580U 90037B 25267.59491433 .00010528 00000-0 38387-3 0 9992 2 20580 28.4660 90.5714 0002787 80.9986 279.0924 15.26466901747880 0 ISS (ZARYA) 1 25544U 98067A 25268.18031108 .00023151 00000-0 40291-3 0 9996 2 25544 51.6335 171.4428 0004262 17.1558 342.9575 15.50657957530679 0 CXO 1 25867U 99040B 25269.92889251 .00000947 00000-0 00000-0 0 9998 2 25867 51.5121 125.4703 8263672 310.4534 0.4622 0.37804985 16321 ...Continue Reading

[TLELIST] Current TLEs

September 24th 2025 PDT

0 HST 1 20580U 90037B 25267.20263805 .00010942 00000-0 39935-3 0 9990 2 20580 28.4657 93.2358 0002770 77.0094 283.0810 15.26459178747820 0 ISS (ZARYA) 1 25544U 98067A 25266.24686783 .00027783 00000-0 48333-3 0 9996 2 25544 51.6338 181.0318 0004269 9.4814 350.6255 15.50560509530377 0 CXO 1 25867U 99040B 25269.92889251 .00000947 00000-0 00000-0 0 9998 2 25867 51.5121 125.4703 8263672 310.4534 0.4622 0.37804985 16321 ...Continue Reading

[TLELIST] Current TLEs

September 23rd 2025 PDT

0 HST 1 20580U 90037B 25265.76427387 .00010443 00000-0 38119-3 0 9995 2 20580 28.4665 103.0040 0002770 65.0646 295.0236 15.26427982747606 0 ISS (ZARYA) 1 25544U 98067A 25265.47345447 .00020692 00000-0 36284-3 0 9993 2 25544 51.6340 184.8663 0004275 7.3393 352.7658 15.50517623530256 0 CXO 1 25867U 99040B 25267.28517176 .00000866 00000-0 00000-0 0 9999 2 25867 51.4890 125.5368 8267589 310.4653 0.5162 0.37809362 16317 ...Continue Reading

[TLELIST] Current TLEs

September 22nd 2025 PDT

0 HST 1 20580U 90037B 25265.24122450 .00009383 00000-0 34185-3 0 9991 2 20580 28.4666 106.5556 0002764 59.7750 300.3118 15.26417055747526 0 ISS (ZARYA) 1 25544U 98067A 25265.15119281 .00019546 00000-0 34339-3 0 9998 2 25544 51.6340 186.4647 0004285 5.9314 354.1726 15.50504496530205 0 CXO 1 25867U 99040B 25267.28517176 .00000866 00000-0 00000-0 0 9999 2 25867 51.4890 125.5368 8267589 310.4653 0.5162 0.37809362 16317 ...Continue Reading

[TLELIST] Current TLEs

September 22nd 2025 PDT

0 HST 1 20580U 90037B 25265.24122450 .00009383 00000-0 34185-3 0 9991 2 20580 28.4666 106.5556 0002764 59.7750 300.3118 15.26417055747526 0 ISS (ZARYA) 1 25544U 98067A 25265.15119281 .00019546 00000-0 34339-3 0 9998 2 25544 51.6340 186.4647 0004285 5.9314 354.1726 15.50504496530205 0 CXO 1 25867U 99040B 25267.28517176 .00000866 00000-0 00000-0 0 9999 2 25867 51.4890 125.5368 8267589 310.4653 0.5162 0.37809362 16317 ...Continue Reading

[TLELIST] Current TLEs

September 22nd 2025 PDT

0 HST 1 20580U 90037B 25265.24122450 .00009383 00000-0 34185-3 0 9991 2 20580 28.4666 106.5556 0002764 59.7750 300.3118 15.26417055747526 0 ISS (ZARYA) 1 25544U 98067A 25265.15119281 .00019546 00000-0 34339-3 0 9998 2 25544 51.6340 186.4647 0004285 5.9314 354.1726 15.50504496530205 0 CXO 1 25867U 99040B 25267.28517176 .00000866 00000-0 00000-0 0 9999 2 25867 51.4890 125.5368 8267589 310.4653 0.5162 0.37809362 16317 ...Continue Reading

[TLELIST] Current TLEs

September 21st 2025 PDT

0 HST 1 20580U 90037B 25264.26049816 .00008176 00000-0 29702-3 0 9994 2 20580 28.4668 113.2151 0002755 51.0610 309.0230 15.26400228747372 0 ISS (ZARYA) 1 25544U 98067A 25264.11993844 .00016413 00000-0 29015-3 0 9993 2 25544 51.6341 191.5777 0004375 2.4569 357.6441 15.50464492530046 0 CXO 1 25867U 99040B 25267.28468475 .00000866 00000-0 00000-0 0 9996 2 25867 51.4889 125.5367 8267597 310.4652 0.4504 0.37809440 16318 ...Continue Reading

[TLELIST] Current TLEs

September 20th 2025 PDT

0 HST 1 20580U 90037B 25262.88746375 .00006850 00000-0 24776-3 0 9997 2 20580 28.4671 122.5383 0002763 36.8967 323.1818 15.26379461747161 0 ISS (ZARYA) 1 25544U 98067A 25263.15311495 .00015260 00000-0 27067-3 0 9996 2 25544 51.6337 196.3707 0004371 358.2759 1.8214 15.50431661529895 0 CXO 1 25867U 99040B 25264.64061064 .00000851 00000-0 00000-0 0 9990 2 25867 51.4661 125.6055 8273394 310.4746 0.4854 0.37809678 16307 ...Continue Reading

[TLELIST] Current TLEs

September 19th 2025 PDT

0 HST 1 20580U 90037B 25261.84133014 .00006172 00000-0 22256-3 0 9990 2 20580 28.4672 129.6402 0002530 25.9320 334.1401 15.26365194747007 0 ISS (ZARYA) 1 25544U 98067A 25262.12181519 .00014081 00000-0 25067-3 0 9992 2 25544 51.6335 201.4846 0004394 354.7362 5.3580 15.50399466529735 0 CXO 1 25867U 99040B 25264.64061064 .00000851 00000-0 00000-0 0 9990 2 25867 51.4661 125.6055 8273394 310.4746 0.4854 0.37809678 16307 ...Continue Reading

[TLELIST] Current TLEs

September 19th 2025 PDT

0 HST 1 20580U 90037B 25261.84133014 .00006172 00000-0 22256-3 0 9990 2 20580 28.4672 129.6402 0002530 25.9320 334.1401 15.26365194747007 0 ISS (ZARYA) 1 25544U 98067A 25262.12181519 .00014081 00000-0 25067-3 0 9992 2 25544 51.6335 201.4846 0004394 354.7362 5.3580 15.50399466529735 0 CXO 1 25867U 99040B 25264.64061064 .00000851 00000-0 00000-0 0 9990 2 25867 51.4661 125.6055 8273394 310.4746 0.4854 0.37809678 16307 ...Continue Reading
  • This mailing list is a public mailing list - anyone may join or leave, at any time.
  • This mailing list is announce-only.

International Space Station (ISS) / Hubble Space Telescope (HST) / Chandra X-Ray Observatory Orbital Data via EMAIL

Privacy Policy:

Private list